CAS-2T & KS-1Q

Last updated on Tue Aug 25 2026 00:03:14 GMT+0000 (Coordinated Universal Time)

1 41847U 16066G 26236.24823162 .00000429 00000+0 70441-4 0 9994 2 41847 98.3779 311.2051 0340081 283.0877 73.2568 14.44813468514625
UTC large
Height (km)
Speed (km/s)
/
Latitude / Longitude
Inclination (degrees)
Orbital Period (minutes)
Azimuth
Elevation
Range (km)
Doppler Factor

Next 0 passes for location: London (51.5072 / 0.1276)

No passes found over London.
CAS-2T & KS-1Q